| time (UTC) | temp F | wind direction | speed MPH | gust MPH | rain 1hr in | rain 24hr in | rain mn in | humidity % | barometer mb |
| 20260901234205 | 67 | 173 | 7.0 | 17.0 | 0.00 | 0.00 | 0.00 | 78 | 1016.5 |
| 20260901233704 | 67 | 214 | 7.0 | 17.0 | 0.00 | 0.00 | 0.00 | 78 | 1016.5 |
| 20260901233204 | 67 | 210 | 7.0 | 17.0 | 0.00 | 0.00 | 0.00 | 78 | 1016.6 |
| 20260901232705 | 68 | 178 | 7.0 | 15.0 | 0.00 | 0.00 | 0.00 | 77 | 1016.7 |
| 20260901232204 | 67 | 253 | 7.0 | 15.0 | 0.00 | 0.00 | 0.00 | 78 | 1016.7 |
| 20260901231704 | 67 | 204 | 8.0 | 16.0 | 0.00 | 0.00 | 0.00 | 79 | 1016.7 |
| 20260901231204 | 67 | 212 | 8.0 | 16.0 | 0.00 | 0.00 | 0.00 | 79 | 1016.8 |
| 20260901230705 | 67 | 266 | 7.0 | 16.0 | 0.00 | 0.00 | 0.00 | 79 | 1016.7 |
| 20260901230205 | 67 | 225 | 9.0 | 16.0 | 0.00 | 0.00 | 0.00 | 79 | 1016.9 |
| 20260901225705 | 67 | 176 | 9.0 | 17.0 | 0.00 | 0.00 | 0.00 | 79 | 1016.8 |
| 20260901225204 | 67 | 188 | 8.0 | 17.0 | 0.00 | 0.00 | 0.00 | 79 | 1016.8 |
| 20260901224704 | 67 | 193 | 9.0 | 17.0 | 0.00 | 0.00 | 0.00 | 79 | 1016.9 |
| 20260901224204 | 67 | 224 | 8.0 | 17.0 | 0.00 | 0.00 | 0.00 | 78 | 1016.8 |
| 20260901223204 | 66 | 202 | 9.0 | 17.0 | 0.00 | 0.00 | 0.00 | 80 | 1016.9 |
| 20260901222704 | 65 | 207 | 10.0 | 16.0 | 0.00 | 0.00 | 0.00 | 81 | 1017.0 |
| 20260901222204 | 65 | 243 | 9.0 | 17.0 | 0.00 | 0.00 | 0.00 | 81 | 1017.0 |
| 20260901221204 | 66 | 217 | 9.0 | 17.0 | 0.00 | 0.00 | 0.00 | 79 | 1017.0 |
| 20260901220704 | 66 | 187 | 9.0 | 15.0 | 0.00 | 0.00 | 0.00 | 78 | 1017.1 |
| 20260901215704 | 67 | 217 | 8.0 | 17.0 | 0.00 | 0.00 | 0.00 | 78 | 1017.2 |
| 20260901215204 | 67 | 201 | 7.0 | 17.0 | 0.00 | 0.00 | 0.00 | 77 | 1017.2 |
| 20260901214704 | 67 | 254 | 6.0 | 16.0 | 0.00 | 0.00 | 0.00 | 77 | 1017.2 |
| 20260901214204 | 67 | 215 | 7.0 | 17.0 | 0.00 | 0.00 | 0.00 | 78 | 1017.2 |
| 20260901213705 | 67 | 188 | 8.0 | 17.0 | 0.00 | 0.00 | 0.00 | 78 | 1017.2 |
| 20260901213204 | 66 | 225 | 8.0 | 15.0 | 0.00 | 0.00 | 0.00 | 77 | 1017.2 |
| 20260901212705 | 66 | 198 | 8.0 | 15.0 | 0.00 | 0.00 | 0.00 | 80 | 1017.2 |
| 20260901212204 | 65 | 190 | 8.0 | 16.0 | 0.00 | 0.00 | 0.00 | 80 | 1017.2 |
| 20260901211704 | 66 | 188 | 8.0 | 16.0 | 0.00 | 0.00 | 0.00 | 80 | 1017.2 |
| 20260901211204 | 66 | 192 | 8.0 | 14.0 | 0.00 | 0.00 | 0.00 | 81 | 1017.3 |
| 20260901210705 | 66 | 177 | 7.0 | 16.0 | 0.00 | 0.00 | 0.00 | 80 | 1017.3 |
| 20260901210204 | 66 | 171 | 8.0 | 16.0 | 0.00 | 0.00 | 0.00 | 81 | 1017.4 |
| 20260901205704 | 66 | 167 | 8.0 | 17.0 | 0.00 | 0.00 | 0.00 | 81 | 1017.4 |
| 20260901205204 | 65 | 219 | 8.0 | 17.0 | 0.00 | 0.00 | 0.00 | 81 | 1017.5 |
| 20260901204704 | 66 | 203 | 8.0 | 17.0 | 0.00 | 0.00 | 0.00 | 82 | 1017.4 |
| 20260901204205 | 65 | 193 | 8.0 | 14.0 | 0.00 | 0.00 | 0.00 | 83 | 1017.5 |
| 20260901203705 | 65 | 222 | 8.0 | 15.0 | 0.00 | 0.00 | 0.00 | 83 | 1017.5 |
| 20260901202704 | 66 | 206 | 7.0 | 17.0 | 0.00 | 0.00 | 0.00 | 82 | 1017.7 |
| 20260901201705 | 66 | 202 | 7.0 | 13.0 | 0.00 | 0.00 | 0.00 | 83 | 1017.6 |
| 20260901201204 | 65 | 236 | 8.0 | 15.0 | 0.00 | 0.00 | 0.00 | 83 | 1017.7 |
| 20260901200705 | 65 | 222 | 8.0 | 15.0 | 0.00 | 0.00 | 0.00 | 82 | 1017.8 |
| 20260901200204 | 66 | 188 | 8.0 | 15.0 | 0.00 | 0.00 | 0.00 | 82 | 1017.7 |
| 20260901195704 | 66 | 191 | 7.0 | 12.0 | 0.00 | 0.00 | 0.00 | 82 | 1017.7 |
| 20260901195204 | 66 | 265 | 6.0 | 10.0 | 0.00 | 0.00 | 0.00 | 82 | 1017.7 |
| 20260901194705 | 65 | 213 | 6.0 | 11.0 | 0.00 | 0.00 | 0.00 | 83 | 1017.7 |
| 20260901194204 | 64 | 270 | 5.0 | 11.0 | 0.00 | 0.00 | 0.00 | 83 | 1017.7 |
| 20260901193704 | 64 | 207 | 6.0 | 11.0 | 0.00 | 0.00 | 0.00 | 85 | 1017.9 |
| 20260901193205 | 64 | 223 | 6.0 | 11.0 | 0.00 | 0.00 | 0.00 | 85 | 1017.9 |
| 20260901192705 | 64 | 209 | 6.0 | 11.0 | 0.00 | 0.00 | 0.00 | 85 | 1017.9 |
| 20260901191704 | 64 | 244 | 6.0 | 10.0 | 0.00 | 0.00 | 0.00 | 84 | 1018.0 |
| 20260901190704 | 64 | 190 | 6.0 | 11.0 | 0.00 | 0.00 | 0.00 | 82 | 1017.9 |
| 20260901185705 | 65 | 174 | 5.0 | 10.0 | 0.00 | 0.00 | 0.00 | 81 | 1017.9 |
| 20260901185204 | 66 | 217 | 4.0 | 10.0 | 0.00 | 0.00 | 0.00 | 82 | 1017.9 |
| 20260901184704 | 65 | 223 | 5.0 | 10.0 | 0.00 | 0.00 | 0.00 | 81 | 1017.8 |
| 20260901184204 | 65 | 265 | 5.0 | 9.0 | 0.00 | 0.00 | 0.00 | 80 | 1017.9 |
| 20260901183704 | 66 | 232 | 5.0 | 9.0 | 0.00 | 0.00 | 0.00 | 79 | 1017.8 |
| 20260901183204 | 66 | 243 | 4.0 | 9.0 | 0.00 | 0.00 | 0.00 | 79 | 1017.9 |
| 20260901182705 | 66 | 215 | 5.0 | 9.0 | 0.00 | 0.00 | 0.00 | 79 | 1017.8 |
| 20260901180705 | 65 | 153 | 4.0 | 8.0 | 0.00 | 0.00 | 0.00 | 77 | 1017.6 |
| 20260901180204 | 65 | 184 | 4.0 | 8.0 | 0.00 | 0.00 | 0.00 | 78 | 1017.7 |
| 20260901175204 | 64 | 238 | 5.0 | 8.0 | 0.00 | 0.00 | 0.00 | 80 | 1017.7 |
| 20260901174204 | 63 | 182 | 5.0 | 9.0 | 0.00 | 0.00 | 0.00 | 79 | 1017.7 |
| 20260901173704 | 64 | 182 | 5.0 | 9.0 | 0.00 | 0.00 | 0.00 | 80 | 1017.8 |
| 20260901173204 | 64 | 142 | 5.0 | 7.0 | 0.00 | 0.00 | 0.00 | 79 | 1017.6 |
| 20260901172705 | 64 | 178 | 4.0 | 10.0 | 0.00 | 0.00 | 0.00 | 78 | 1017.6 |
| 20260901172205 | 64 | 156 | 4.0 | 10.0 | 0.00 | 0.00 | 0.00 | 78 | 1017.5 |
| 20260901171205 | 65 | 134 | 5.0 | 10.0 | 0.00 | 0.00 | 0.00 | 77 | 1017.5 |
| 20260901170705 | 65 | 155 | 6.0 | 8.0 | 0.00 | 0.00 | 0.00 | 73 | 1017.3 |
| 20260901170204 | 65 | 99 | 5.0 | 8.0 | 0.00 | 0.00 | 0.00 | 70 | 1017.3 |
| 20260901165205 | 65 | 67 | 4.0 | 7.0 | 0.00 | 0.00 | 0.00 | 73 | 1017.1 |
| 20260901164205 | 64 | 176 | 3.0 | 7.0 | 0.00 | 0.00 | 0.00 | 77 | 1017.2 |
| 20260901163704 | 64 | 150 | 2.0 | 7.0 | 0.00 | 0.00 | 0.00 | 78 | 1017.3 |
| 20260901163205 | 63 | 152 | 1.0 | 5.0 | 0.00 | 0.00 | 0.00 | 78 | 1017.3 |
| 20260901162704 | 63 | 183 | 2.0 | 5.0 | 0.00 | 0.00 | 0.00 | 78 | 1017.2 |
| 20260901162204 | 63 | 120 | 2.0 | 5.0 | 0.00 | 0.00 | 0.00 | 78 | 1017.3 |
| 20260901161704 | 63 | 211 | 0.0 | 1.0 | 0.00 | 0.00 | 0.00 | 78 | 1017.4 |
| 20260901161203 | 63 | 175 | 0.0 | 5.0 | 0.00 | 0.00 | 0.00 | 78 | 1017.4 |
| 20260901160705 | 62 | 175 | 1.0 | 5.0 | 0.00 | 0.00 | 0.00 | 77 | 1017.4 |
| 20260901160204 | 62 | 175 | 2.0 | 5.0 | 0.00 | 0.00 | 0.00 | 77 | 1017.3 |
| 20260901155204 | 62 | 119 | 1.0 | 3.0 | 0.00 | 0.00 | 0.00 | 77 | 1017.1 |
| 20260901154704 | 62 | 119 | 0.0 | 3.0 | 0.00 | 0.00 | 0.00 | 78 | 1017.0 |
| 20260901154204 | 62 | 138 | 0.0 | 3.0 | 0.00 | 0.00 | 0.00 | 79 | 1016.9 |
| 20260901153705 | 61 | 172 | 1.0 | 3.0 | 0.00 | 0.00 | 0.00 | 79 | 1016.7 |
| 20260901153204 | 61 | 120 | 1.0 | 2.0 | 0.00 | 0.00 | 0.00 | 80 | 1016.8 |
| 20260901152705 | 61 | 119 | 0.0 | 3.0 | 0.00 | 0.00 | 0.00 | 80 | 1016.8 |
| 20260901152204 | 61 | 120 | 0.0 | 4.0 | 0.00 | 0.00 | 0.00 | 80 | 1016.9 |
| 20260901151704 | 61 | 120 | 1.0 | 4.0 | 0.00 | 0.00 | 0.00 | 80 | 1016.9 |
| 20260901151204 | 61 | 119 | 1.0 | 4.0 | 0.00 | 0.00 | 0.00 | 79 | 1017.0 |
| 20260901150705 | 61 | 119 | 0.0 | 3.0 | 0.00 | 0.00 | 0.00 | 79 | 1017.0 |
| 20260901145704 | 61 | 190 | 1.0 | 4.0 | 0.00 | 0.00 | 0.00 | 80 | 1016.8 |
| 20260901144704 | 61 | 119 | 1.0 | 4.0 | 0.00 | 0.00 | 0.00 | 80 | 1016.6 |
| 20260901144204 | 61 | 123 | 0.0 | 0.0 | 0.00 | 0.00 | 0.00 | 80 | 1016.6 |
| 20260901143704 | 61 | 88 | 0.0 | 0.0 | 0.00 | 0.00 | 0.00 | 79 | 1016.5 |
| 20260901142705 | 61 | 88 | 0.0 | 0.0 | 0.00 | 0.00 | 0.00 | 79 | 1016.3 |
| 20260901142205 | 61 | 88 | 0.0 | 0.0 | 0.00 | 0.00 | 0.00 | 79 | 1016.3 |
| 20260901141704 | 61 | 88 | 0.0 | 0.0 | 0.00 | 0.00 | 0.00 | 79 | 1016.2 |
| 20260901141204 | 61 | 88 | 0.0 | 0.0 | 0.00 | 0.00 | 0.00 | 78 | 1016.2 |
| 20260901140204 | 61 | 111 | 0.0 | 0.0 | 0.00 | 0.00 | 0.00 | 78 | 1016.0 |
| 20260901135704 | 61 | 71 | 0.0 | 0.0 | 0.00 | 0.00 | 0.00 | 78 | 1015.8 |
| 20260901135204 | 61 | 71 | 0.0 | 0.0 | 0.00 | 0.00 | 0.00 | 77 | 1015.8 |
| 20260901134705 | 61 | 71 | 0.0 | 0.0 | 0.00 | 0.00 | 0.00 | 77 | 1015.8 |
| 20260901133704 | 61 | 234 | 0.0 | 0.0 | 0.00 | 0.00 | 0.00 | 77 | 1015.8 |
| 20260901132704 | 61 | 234 | 0.0 | 0.0 | 0.00 | 0.00 | 0.00 | 76 | 1015.7 |
| 20260901132205 | 61 | 234 | 0.0 | 0.0 | 0.00 | 0.00 | 0.00 | 76 | 1015.7 |
| 20260901130704 | 61 | 234 | 0.0 | 0.0 | 0.00 | 0.00 | 0.00 | 76 | 1015.7 |
| 20260901130204 | 60 | 234 | 0.0 | 0.0 | 0.00 | 0.00 | 0.00 | 75 | 1015.6 |
| 20260901125704 | 60 | 234 | 0.0 | 0.0 | 0.00 | 0.00 | 0.00 | 75 | 1015.5 |
| 20260901125204 | 60 | 234 | 0.0 | 0.0 | 0.00 | 0.00 | 0.00 | 75 | 1015.5 |
| 20260901124205 | 60 | 234 | 0.0 | 0.0 | 0.00 | 0.00 | 0.00 | 75 | 1015.4 |
| 20260901123705 | 60 | 234 | 0.0 | 0.0 | 0.00 | 0.00 | 0.00 | 74 | 1015.5 |
| 20260901122704 | 61 | 234 | 0.0 | 0.0 | 0.00 | 0.00 | 0.00 | 74 | 1015.5 |
| 20260901122205 | 60 | 234 | 0.0 | 0.0 | 0.00 | 0.00 | 0.00 | 74 | 1015.5 |
| 20260901121204 | 61 | 234 | 0.0 | 0.0 | 0.00 | 0.00 | 0.00 | 74 | 1015.5 |
| 20260901120705 | 61 | 234 | 0.0 | 0.0 | 0.00 | 0.00 | 0.00 | 74 | 1015.3 |
| 20260901120204 | 61 | 234 | 0.0 | 0.0 | 0.00 | 0.00 | 0.00 | 74 | 1015.3 |
| 20260901115705 | 61 | 234 | 0.0 | 0.0 | 0.00 | 0.00 | 0.00 | 74 | 1015.3 |
| 20260901115204 | 61 | 234 | 0.0 | 0.0 | 0.00 | 0.00 | 0.00 | 74 | 1015.3 |
| 20260901114704 | 61 | 234 | 0.0 | 0.0 | 0.00 | 0.00 | 0.00 | 74 | 1015.4 |
| 20260901114204 | 61 | 234 | 0.0 | 0.0 | 0.00 | 0.00 | 0.00 | 74 | 1015.4 |
| 20260901113704 | 61 | 234 | 0.0 | 0.0 | 0.00 | 0.00 | 0.00 | 74 | 1015.4 |
| 20260901113204 | 61 | 234 | 0.0 | 3.0 | 0.00 | 0.00 | 0.00 | 74 | 1015.5 |
| 20260901112705 | 61 | 234 | 0.0 | 3.0 | 0.00 | 0.00 | 0.00 | 74 | 1015.5 |
| 20260901111704 | 61 | 234 | 1.0 | 3.0 | 0.00 | 0.00 | 0.00 | 74 | 1015.6 |
| 20260901111205 | 61 | 234 | 1.0 | 3.0 | 0.00 | 0.00 | 0.00 | 74 | 1015.5 |
| 20260901110704 | 61 | 263 | 0.0 | 3.0 | 0.00 | 0.00 | 0.00 | 74 | 1015.3 |
| 20260901110205 | 61 | 318 | 0.0 | 4.0 | 0.00 | 0.00 | 0.00 | 74 | 1015.2 |
| 20260901105704 | 61 | 318 | 1.0 | 4.0 | 0.00 | 0.00 | 0.00 | 74 | 1015.4 |
| 20260901105204 | 61 | 318 | 0.0 | 4.0 | 0.00 | 0.00 | 0.00 | 74 | 1015.4 |
| 20260901104704 | 61 | 322 | 0.0 | 0.0 | 0.00 | 0.00 | 0.00 | 74 | 1015.3 |
| 20260901104205 | 61 | 35 | 0.0 | 1.0 | 0.00 | 0.00 | 0.00 | 74 | 1015.3 |
| 20260901103204 | 61 | 325 | 0.0 | 5.0 | 0.00 | 0.00 | 0.00 | 74 | 1015.3 |
| 20260901102204 | 61 | 242 | 2.0 | 5.0 | 0.00 | 0.00 | 0.00 | 74 | 1015.1 |
| 20260901101705 | 61 | 292 | 2.0 | 5.0 | 0.00 | 0.00 | 0.00 | 74 | 1015.2 |
| 20260901101205 | 61 | 286 | 2.0 | 5.0 | 0.00 | 0.00 | 0.00 | 74 | 1015.2 |
| 20260901100204 | 61 | 0 | 3.0 | 5.0 | 0.00 | 0.00 | 0.00 | 75 | 1015.4 |
| 20260901095705 | 61 | 293 | 2.0 | 5.0 | 0.00 | 0.00 | 0.00 | 75 | 1015.3 |
| 20260901095204 | 61 | 309 | 3.0 | 5.0 | 0.00 | 0.00 | 0.00 | 75 | 1015.3 |
| 20260901094705 | 61 | 283 | 3.0 | 5.0 | 0.00 | 0.00 | 0.00 | 75 | 1015.3 |
| 20260901094205 | 61 | 283 | 2.0 | 5.0 | 0.00 | 0.00 | 0.00 | 75 | 1015.2 |
| 20260901093204 | 61 | 285 | 1.0 | 3.0 | 0.00 | 0.00 | 0.00 | 76 | 1015.2 |
| 20260901092704 | 61 | 265 | 1.0 | 3.0 | 0.00 | 0.00 | 0.00 | 76 | 1015.1 |
| 20260901092204 | 61 | 292 | 1.0 | 3.0 | 0.00 | 0.00 | 0.00 | 76 | 1015.1 |
| 20260901091704 | 61 | 262 | 1.0 | 3.0 | 0.00 | 0.00 | 0.00 | 76 | 1015.0 |
| 20260901091205 | 61 | 262 | 0.0 | 0.0 | 0.00 | 0.00 | 0.00 | 76 | 1015.2 |
| 20260901090704 | 61 | 262 | 0.0 | 0.0 | 0.00 | 0.00 | 0.00 | 76 | 1015.2 |
| 20260901090204 | 61 | 262 | 0.0 | 0.0 | 0.00 | 0.00 | 0.00 | 76 | 1015.2 |
| 20260901085704 | 61 | 262 | 0.0 | 0.0 | 0.00 | 0.00 | 0.00 | 76 | 1015.1 |
| 20260901085204 | 61 | 262 | 0.0 | 0.0 | 0.00 | 0.00 | 0.00 | 76 | 1015.1 |
| 20260901084705 | 61 | 262 | 0.0 | 0.0 | 0.00 | 0.00 | 0.00 | 76 | 1015.1 |
| 20260901084205 | 61 | 282 | 0.0 | 0.0 | 0.00 | 0.00 | 0.00 | 76 | 1015.0 |
| 20260901083705 | 61 | 282 | 0.0 | 0.0 | 0.00 | 0.00 | 0.00 | 76 | 1015.0 |
| 20260901083204 | 61 | 282 | 0.0 | 0.0 | 0.00 | 0.00 | 0.00 | 76 | 1015.1 |
| 20260901082204 | 61 | 282 | 0.0 | 0.0 | 0.00 | 0.00 | 0.00 | 77 | 1015.1 |
| 20260901081704 | 61 | 282 | 0.0 | 0.0 | 0.00 | 0.00 | 0.00 | 77 | 1015.1 |
| 20260901081204 | 61 | 282 | 0.0 | 0.0 | 0.00 | 0.00 | 0.00 | 77 | 1015.1 |
| 20260901080705 | 61 | 282 | 0.0 | 2.0 | 0.00 | 0.00 | 0.00 | 77 | 1015.1 |
| 20260901075704 | 61 | 278 | 1.0 | 3.0 | 0.00 | 0.00 | 0.00 | 77 | 1015.1 |
| 20260901075205 | 61 | 289 | 1.0 | 3.0 | 0.00 | 0.00 | 0.00 | 77 | 1015.0 |
| 20260901074704 | 61 | 289 | 1.0 | 4.0 | 0.00 | 0.00 | 0.00 | 77 | 1015.1 |
| 20260901074205 | 61 | 285 | 1.0 | 4.0 | 0.00 | 0.00 | 0.00 | 77 | 1015.2 |
| 20260901073704 | 61 | 303 | 2.0 | 4.0 | 0.00 | 0.00 | 0.00 | 77 | 1015.2 |
| 20260901073204 | 61 | 333 | 2.0 | 5.0 | 0.00 | 0.00 | 0.00 | 78 | 1015.2 |
| 20260901072704 | 61 | 283 | 2.0 | 5.0 | 0.00 | 0.00 | 0.00 | 78 | 1015.2 |
| 20260901072204 | 61 | 320 | 2.0 | 5.0 | 0.00 | 0.00 | 0.00 | 78 | 1015.2 |
| 20260901071704 | 61 | 319 | 3.0 | 5.0 | 0.00 | 0.00 | 0.00 | 78 | 1015.1 |
| 20260901070705 | 61 | 306 | 2.0 | 5.0 | 0.00 | 0.00 | 0.00 | 78 | 1015.2 |
| 20260901070204 | 61 | 334 | 2.0 | 5.0 | 0.00 | 0.00 | 0.00 | 79 | 1015.1 |
| 20260901065704 | 61 | 261 | 2.0 | 7.0 | 0.00 | 0.00 | 0.00 | 79 | 1015.2 |
| 20260901065205 | 61 | 281 | 3.0 | 7.0 | 0.00 | 0.00 | 0.00 | 79 | 1015.2 |
| 20260901064704 | 61 | 288 | 2.0 | 5.0 | 0.00 | 0.00 | 0.00 | 80 | 1015.2 |
| 20260901064204 | 61 | 309 | 0.0 | 5.0 | 0.00 | 0.00 | 0.00 | 80 | 1015.2 |
| 20260901063704 | 61 | 306 | 1.0 | 5.0 | 0.00 | 0.00 | 0.00 | 81 | 1015.2 |
| 20260901062705 | 60 | 297 | 2.0 | 6.0 | 0.00 | 0.00 | 0.00 | 81 | 1015.2 |
| 20260901062204 | 60 | 295 | 3.0 | 6.0 | 0.00 | 0.00 | 0.00 | 82 | 1015.2 |
| 20260901061705 | 60 | 289 | 3.0 | 6.0 | 0.00 | 0.00 | 0.00 | 83 | 1015.2 |
| 20260901061205 | 60 | 275 | 2.0 | 4.0 | 0.00 | 0.00 | 0.00 | 84 | 1015.3 |
| 20260901060704 | 60 | 288 | 1.0 | 3.0 | 0.00 | 0.00 | 0.00 | 85 | 1015.3 |
| 20260901060205 | 60 | 245 | 1.0 | 3.0 | 0.00 | 0.00 | 0.00 | 85 | 1015.3 |
| 20260901055704 | 61 | 166 | 0.0 | 2.0 | 0.00 | 0.00 | 0.00 | 86 | 1015.2 |
| 20260901055204 | 61 | 166 | 0.0 | 3.0 | 0.00 | 0.00 | 0.00 | 86 | 1015.2 |
| 20260901054205 | 61 | 138 | 1.0 | 5.0 | 0.00 | 0.00 | 0.00 | 87 | 1015.2 |
| 20260901053704 | 61 | 138 | 1.0 | 5.0 | 0.00 | 0.00 | 0.00 | 87 | 1015.3 |
| 20260901053204 | 61 | 166 | 1.0 | 5.0 | 0.00 | 0.00 | 0.00 | 87 | 1015.5 |
| 20260901052704 | 61 | 165 | 1.0 | 3.0 | 0.00 | 0.00 | 0.00 | 87 | 1015.4 |
| 20260901052205 | 61 | 165 | 1.0 | 4.0 | 0.00 | 0.00 | 0.00 | 87 | 1015.4 |
| 20260901051204 | 61 | 192 | 2.0 | 4.0 | 0.00 | 0.00 | 0.00 | 86 | 1015.3 |
| 20260901050205 | 61 | 186 | 2.0 | 4.0 | 0.00 | 0.00 | 0.00 | 86 | 1015.2 |
| 20260901045704 | 61 | 158 | 1.0 | 4.0 | 0.00 | 0.00 | 0.00 | 86 | 1015.1 |
| 20260901045205 | 61 | 188 | 0.0 | 3.0 | 0.00 | 0.00 | 0.00 | 86 | 1015.0 |
| 20260901044704 | 61 | 202 | 0.0 | 4.0 | 0.00 | 0.00 | 0.00 | 86 | 1014.9 |
| 20260901044204 | 61 | 202 | 1.0 | 4.0 | 0.00 | 0.00 | 0.00 | 85 | 1014.9 |
| 20260901043704 | 61 | 202 | 2.0 | 4.0 | 0.00 | 0.00 | 0.00 | 85 | 1014.8 |
| 20260901042204 | 62 | 230 | 0.0 | 3.0 | 0.00 | 0.00 | 0.00 | 85 | 1014.6 |
| 20260901041704 | 62 | 96 | 0.0 | 1.0 | 0.00 | 0.00 | 0.00 | 85 | 1014.6 |
| 20260901041204 | 62 | 96 | 0.0 | 3.0 | 0.00 | 0.00 | 0.00 | 85 | 1014.6 |
| 20260901040704 | 62 | 96 | 0.0 | 3.0 | 0.00 | 0.00 | 0.00 | 84 | 1014.6 |
| 20260901040204 | 62 | 96 | 1.0 | 3.0 | 0.00 | 0.00 | 0.00 | 84 | 1014.6 |
| 20260901035704 | 62 | 70 | 0.0 | 0.0 | 0.00 | 0.00 | 0.00 | 84 | 1014.5 |
| 20260901035204 | 62 | 86 | 0.0 | 2.0 | 0.00 | 0.00 | 0.00 | 84 | 1014.4 |
| 20260901034705 | 62 | 19 | 0.0 | 3.0 | 0.00 | 0.00 | 0.00 | 83 | 1014.4 |
| 20260901034204 | 62 | 19 | 1.0 | 3.0 | 0.00 | 0.00 | 0.00 | 83 | 1014.3 |
| 20260901033205 | 62 | 5 | 1.0 | 3.0 | 0.00 | 0.00 | 0.00 | 83 | 1014.2 |
| 20260901032704 | 62 | 41 | 1.0 | 4.0 | 0.00 | 0.00 | 0.00 | 82 | 1014.1 |
| 20260901031704 | 63 | 52 | 1.0 | 5.0 | 0.00 | 0.00 | 0.00 | 81 | 1013.9 |
| 20260901031204 | 63 | 45 | 1.0 | 5.0 | 0.00 | 0.00 | 0.00 | 81 | 1014.0 |
| 20260901030705 | 63 | 84 | 1.0 | 5.0 | 0.00 | 0.00 | 0.00 | 81 | 1013.9 |
| 20260901030204 | 63 | 80 | 2.0 | 7.0 | 0.00 | 0.00 | 0.00 | 80 | 1013.9 |
| 20260901025205 | 64 | 53 | 3.0 | 7.0 | 0.00 | 0.00 | 0.00 | 79 | 1013.9 |
| 20260901024705 | 64 | 47 | 3.0 | 6.0 | 0.00 | 0.00 | 0.00 | 79 | 1013.8 |
| 20260901023704 | 65 | 50 | 3.0 | 7.0 | 0.00 | 0.00 | 0.00 | 78 | 1013.7 |
| 20260901022704 | 65 | 65 | 1.0 | 3.0 | 0.00 | 0.00 | 0.00 | 76 | 1013.6 |
| 20260901022204 | 65 | 132 | 0.0 | 4.0 | 0.00 | 0.00 | 0.00 | 76 | 1013.6 |
| 20260901021204 | 65 | 279 | 3.0 | 8.0 | 0.00 | 0.00 | 0.00 | 76 | 1013.7 |
| 20260901020704 | 65 | 263 | 3.0 | 8.0 | 0.00 | 0.00 | 0.00 | 76 | 1013.7 |
| 20260901020204 | 65 | 207 | 3.0 | 8.0 | 0.00 | 0.00 | 0.00 | 77 | 1013.6 |
| 20260901015704 | 65 | 169 | 4.0 | 8.0 | 0.00 | 0.00 | 0.00 | 77 | 1013.7 |
| 20260901014704 | 65 | 232 | 4.0 | 9.0 | 0.00 | 0.00 | 0.00 | 76 | 1013.7 |
| 20260901014204 | 66 | 209 | 5.0 | 9.0 | 0.00 | 0.00 | 0.00 | 76 | 1013.6 |
| 20260901013704 | 66 | 192 | 4.0 | 8.0 | 0.00 | 0.00 | 0.00 | 75 | 1013.5 |
| 20260901013204 | 66 | 243 | 4.0 | 9.0 | 0.00 | 0.00 | 0.00 | 76 | 1013.4 |
| 20260901012704 | 66 | 171 | 4.0 | 9.0 | 0.00 | 0.00 | 0.00 | 77 | 1013.5 |
| 20260901012204 | 66 | 207 | 4.0 | 9.0 | 0.00 | 0.00 | 0.00 | 77 | 1013.5 |
| 20260901011704 | 66 | 200 | 4.0 | 12.0 | 0.00 | 0.00 | 0.00 | 77 | 1013.5 |
| 20260901010704 | 67 | 165 | 5.0 | 17.0 | 0.00 | 0.00 | 0.00 | 76 | 1013.6 |
| 20260901010204 | 67 | 219 | 5.0 | 17.0 | 0.00 | 0.00 | 0.00 | 75 | 1013.7 |
| 20260901005704 | 67 | 212 | 6.0 | 13.0 | 0.00 | 0.00 | 0.00 | 75 | 1013.7 |
| 20260901004704 | 67 | 242 | 6.0 | 14.0 | 0.00 | 0.00 | 0.00 | 76 | 1013.6 |
| 20260901003705 | 67 | 270 | 6.0 | 15.0 | 0.00 | 0.00 | 0.00 | 75 | 1013.6 |
| 20260901003204 | 67 | 222 | 6.0 | 15.0 | 0.00 | 0.00 | 0.00 | 75 | 1013.6 |
| 20260901002704 | 67 | 267 | 7.0 | 14.0 | 0.00 | 0.00 | 0.00 | 76 | 1013.7 |
| 20260901002205 | 67 | 252 | 7.0 | 16.0 | 0.00 | 0.00 | 0.00 | 76 | 1013.6 |
| 20260901001204 | 67 | 169 | 7.0 | 14.0 | 0.00 | 0.00 | 0.00 | 74 | 1013.6 |
| 20260901000704 | 68 | 194 | 6.0 | 13.0 | 0.00 | 0.00 | 0.00 | 74 | 1013.6 |
| 20260831235704 | 69 | 205 | 6.0 | 13.0 | 0.00 | 0.00 | 0.00 | 73 | 1013.5 |
| 20260831235205 | 69 | 227 | 6.0 | 10.0 | 0.00 | 0.00 | 0.00 | 73 | 1013.6 |
| 20260831234704 | 69 | 196 | 5.0 | 11.0 | 0.00 | 0.00 | 0.00 | 73 | 1013.7 |